Location: G�ndlingen
(48.0142°N, 7.6396°E)
Time: 01:21:41
(UTC+00:00)

Cosmos 1452 Rocket - Pass Details

Date: 05 July 2020
Orbit: 768 x 774 km, 74.1° (Epoch: 11 August)

Event Time Altitude Azimuth Distance (km) Brightness Sun altitude
Rises 23:25:17 0° 336° (NNW) 3,257 8.0 -19.3°
Reaches altitude 10° 23:27:40 10° 336° (NNW) 2,324 7.0 -19.3°
Maximum altitude 23:32:57 82° 249° (WSW) 784 3.4 -19.3°
Enters shadow 23:35:04 37° 166° (SSE) 1,175 3.9 -19.3°
